Terug naar catalogus

STARLINK-11556

ActiefCommunicatieVLEO
NORAD 62838·PAYLOAD·🇺🇸 United States

Gelanceerd Jan 27, 2025 vanaf Cape Canaveral Space Force Station

Loading…

Volgende Passages (komende 24 uur)

TLE

VersSource: CelesTrak SupGP

Epoch: Sep 14, 2026, 22:28 UTC

1 62838C 25019K   26257.93659722  .00066071  00000+0  51312-3 0  2570
2 62838  43.0005 245.0534 0001550 254.5381 215.6272 15.70808358    14

Volg STARLINK-11556 in realtime met AllMySat

Download on the App Store